User: anonymous   Login
Location: Chandrammap?lem
(16.9200°N, 81.0051°E)
Time: 12:49:39
(UTC+00:00)
Language:

Cosmos 2341 Rocket - Orbit

View from above orbital plane
View from above orbital plane
View from above satellite
View from above satellite

Ground track
Ground track

The orbit data is extracted from the following two-line orbital elements,

1 24773U 97017B   24198.71870910  .00000050  00000-0  37308-4 0  9994
2 24773  82.9198 256.1504 0023166 309.5217 173.7758 13.73836242365720
Epoch (UTC): 16 July 2024 17:14:56
Eccentricity: 0.0023166
inclination: 82.9198°
perigee height: 969 km
apogee height: 1003 km
right ascension of ascending node: 256.1504°
argument of perigee: 309.5217°
revolutions per day: 13.73836242
mean anomaly at epoch: 173.7758°
orbit number at epoch: 36572

The dashed part of the orbit path shows where the satellite is in the earth's shadow,  

DLR